Back to catalog

STARLINK-34147

AliveCommunicationsVLEO
NORAD 63965·PAYLOAD·🇺🇸 United States

Launched May 13, 2025 from Cape Canaveral Space Force Station

Loading…

Next Passes (next 24 hours)

TLE

FreshSource: CelesTrak SupGP

Epoch: Sep 14, 2026, 21:41 UTC

1 63965C 25099P   26257.90395833 -.00016055  00000+0 -58138-3 0  2579
2 63965  42.9999 187.4498 0001352 259.3091 196.9492 15.27592935    13

Track STARLINK-34147 in real time with AllMySat

Download on the App Store